Regional Weather Roundup
Issued by NWS

Home | Current Version | Previous Version | Text Only | Print | Product List | Glossary On
Versions: 1 2 3 4 5 6 7 8 9 10 11 12 13 14 15 16 17 18 19 20 21 22 23 24 25 26 27
000
ASUS45 KBOI 061310
RWRID

IDAHO REGIONAL WEATHER ROUNDUP
NATIONAL WEATHER SERVICE BOISE ID
600 AM MST TUE DEC 06 2016

NOTE: "FAIR" INDICATES FEW OR NO CLOUDS BELOW 12000 FEET
WITH NO SIGNIFICANT WEATHER AND/OR OBSTRUCTIONS TO VISIBILITY

IDZ012-014-061400-
SOUTHWEST IDAHO


CITY           SKY/WX    TMP DP  RH WIND       PRES   REMARKS
BOISE          CLOUDY    24  14  65 E13       29.90S WCI  12
CALDWELL       CLOUDY    25  18  74 SE8       29.92F WCI  16
MOUNTAIN HOME  CLOUDY    22  15  74 E15       29.90S WCI   9
$$

IDZ016-017-061400-
SOUTHCENTRAL IDAHO


CITY           SKY/WX    TMP DP  RH WIND       PRES   REMARKS
BURLEY         PTCLDY     8   4  83 NE5       29.87F WCI   0
JEROME         MOCLDY    12   8  84 NE16      29.86F WCI  -5
TWIN FALLS     MOCLDY     7   2  80 CALM      29.85F
$$

IDZ019>023-061400-
SOUTHEAST IDAHO


CITY           SKY/WX    TMP DP  RH WIND       PRES   REMARKS
IDAHO FALLS    CLEAR      6   0  76 N7        29.90F WCI  -6
POCATELLO      CLEAR      8   2  76 SE3       29.90F
REXBURG        CLEAR      4  -2  76 NE7       29.91F WCI  -8
$$

IDZ006-010-011-018-031-032-061400-
CENTRAL IDAHO MOUNTAINS


CITY           SKY/WX    TMP DP  RH WIND       PRES   REMARKS
MCCALL         LGT SNOW  16  12  84 CALM      29.76S FOG
HAILEY         PTCLDY     3  -4  72 NW13G20   29.87F WCI -14
STANLEY          N/A     -9 -15  75 CALM      29.77F
SALMON         CLOUDY     7   1  78 CALM      29.93F
CHALLIS        CLOUDY     7   2  80 CALM      29.85F
$$

IDZ002-004-006-007-026-061400-
NORTHERN IDAHO


CITY           SKY/WX    TMP DP  RH WIND       PRES   REMARKS
LEWISTON       LGT SNOW  29  26  89 NE6       29.92S FOG     WCI  23
LOWELL           N/A     27  23  85 SW3       29.98F
COEUR D`ALENE  CLOUDY    22  16  78 N14       29.95S WCI   9
MULLAN PASS    CLOUDY     9   6  88 SE8       29.73F FOG     WCI  -3
$$




USA.gov is the U.S. government's official web portal to all federal, state and local government web resources and services.